Home > Weather > Mersin > Past weeks

Flag for Turkey Weather for the Past 2 Weeks in Mersin, Turkey

Now
55 °F

Sprinkles. Fog.


Feels Like: 55 °F
Forecast: 46 / 61 °F
Wind: No wind

Location: Adana / Sakirpasa

Current Time: Feb 13, 2016 at 9:00:47 AM

Latest Report: Feb 13, 2016 at 8:20 AM


Visibility: 3 mi

Pressure: 30.18 "Hg

Humidity: 88%

Dew point: 52 °F

Location of MersinLocation

Historic Weather in Mersin — Graph

°F

Mersin Temperature Yesterday

Maximum temperature yesterday: 63 °F (at 12:50 PM)
Minimum temperature yesterday: 50 °F (at 12:50 AM)
Average temperature yesterday: 56 °F

High & Low Weather Summary for the Past Weeks

 TemperatureHumidityPressure
High70 °F (Feb 5, 12:50 PM)94% (Feb 1, 2:20 AM)30.42 "Hg (Feb 1, 2:20 AM)
Low34 °F (Feb 8, 5:20 AM)17% (Feb 5, 1:20 PM)29.77 "Hg (Feb 6, 1:20 PM)
Average52 °F62%30.17 "Hg
* Reported Jan 29 7:20 AM — Feb 13 7:50 AM, Mersin, Weather by CustomWeather, © 2016

Note: Actual official high and low records may vary slightly from our data, if they occured in-between our weather recording intervals... More about our weather records

Advertising

Mersin Weather History for the Previous 24 Hours

 ConditionsComfort  
Time TempWeatherWind HumidityBarometerVisibility
7:50 AM
Sat, Feb 13
55 °FSprinkles. Fog.6 mph88%30.18 "Hg3 mi
7:20 AM55 °FFog.3 mph88%30.18 "Hg3 mi
6:50 AM54 °FFog.6 mph94%30.18 "Hg3 mi
6:20 AM54 °FFog.6 mph94%30.15 "Hg3 mi
5:50 AM54 °FFog.5 mph94%30.18 "Hg3 mi
5:20 AM52 °FFog.5 mph94%30.15 "Hg3 mi
4:50 AM54 °FFog.3 mph88%30.15 "Hg3 mi
4:20 AM54 °FFog.5 mph94%30.18 "Hg3 mi
3:50 AM55 °FFog.7 mph88%30.18 "Hg3 mi
3:20 AM55 °FFog.7 mph88%30.18 "Hg3 mi
2:50 AM55 °FFog.3 mph88%30.18 "Hg3 mi
2:20 AM55 °FFog.3 mph88%30.18 "Hg3 mi
1:50 AM55 °FFog.5 mph88%30.21 "Hg3 mi
12:50 AM55 °FFog.6 mph88%30.21 "Hg3 mi
12:20 AM57 °FFog.5 mph88%30.21 "Hg3 mi
11:50 PM
Fri, Feb 12
57 °FFog.5 mph88%30.21 "Hg3 mi
11:20 PM57 °FFog.5 mph88%30.21 "Hg3 mi
10:50 PM57 °FFog.1 mph88%30.21 "Hg3 mi
10:20 PM57 °FFog.6 mph88%30.21 "Hg3 mi
9:50 PM57 °FFog.3 mph88%30.21 "Hg3 mi
9:20 PM55 °FFog.5 mph94%30.21 "Hg3 mi
8:50 PM55 °FFog.5 mph94%30.21 "Hg3 mi
8:20 PM55 °FFog.6 mph94%30.21 "Hg3 mi
7:50 PM57 °FFog.8 mph88%30.21 "Hg3 mi
7:20 PM57 °FFog.7 mph88%30.21 "Hg3 mi
6:50 PM57 °FSprinkles. Fog.7 mph88%30.21 "Hg3 mi
6:20 PM57 °FSprinkles. Fog.8 mph88%30.21 "Hg3 mi
5:50 PM59 °FFog.7 mph77%30.21 "Hg3 mi
5:20 PM59 °FFog.7 mph77%30.18 "Hg3 mi
4:50 PM59 °FFog.7 mph77%30.18 "Hg3 mi
4:20 PM61 °FBroken clouds.7 mph72%30.18 "HgN/A
3:50 PM59 °FSprinkles. Broken clouds.6 mph77%30.18 "HgN/A
3:20 PM61 °FBroken clouds.5 mph72%30.18 "HgN/A
2:50 PM63 °FBroken clouds.No wind64%30.18 "HgN/A
2:20 PM63 °FBroken clouds.1 mph64%30.18 "HgN/A
1:50 PM63 °FBroken clouds.No wind64%30.18 "HgN/A
1:20 PM63 °FBroken clouds.2 mph64%30.18 "HgN/A
12:50 PM63 °FBroken clouds.5 mph64%30.18 "HgN/A
12:20 PM61 °FBroken clouds.1 mph68%30.21 "HgN/A
11:50 AM61 °FBroken clouds.1 mph68%30.21 "HgN/A
11:20 AM59 °FBroken clouds.5 mph68%30.21 "HgN/A
10:50 AM59 °FBroken clouds.6 mph68%30.24 "HgN/A
10:20 AM57 °FBroken clouds.7 mph72%30.24 "HgN/A
9:50 AM55 °FSprinkles. Broken clouds.5 mph72%30.24 "HgN/A
9:20 AM55 °FBroken clouds.5 mph72%30.21 "HgN/A
Weather by CustomWeather, © 2016

See weather overviewHow to use our weather pages